Location: Ammerl�gen
(47.2167°N, 9.6000°E)
Time: 04:31:32
(UTC+00:00)

ARIANE 5 R/B - Pass Details

Date: 21 April 2021
Orbit: 620 x 656 km, 98.1° (Epoch: 11 May)

Event Time Altitude Azimuth Distance (km) Brightness Sun altitude
Exits shadow 19:41:00 19° 105° (ESE) 1,530 4.0 -13.2°
Maximum altitude 19:43:03 26° 65° (ENE) 1,241 3.8 -13.5°
Drops below altitude 10° 19:46:42 10° 9° (N) 2,018 5.6 -14.0°
Sets 19:49:09 0° 357° (N) 2,925 6.6 -14.3°
